Вернуться в каталог

STARLINK-2576

АктивенСвязьVLEO
NORAD 48400·PAYLOAD·🇺🇸 United States

Запущен May 4, 2021 с Cape Canaveral Space Force Station

Loading…

Ближайшие Пролёты (ближайшие 24 часа)

TLE

СвежийSource: CelesTrak SupGP

Эпоха: Sep 14, 2026, 21:23 UTC

1 48400C 21038AZ  26257.89145833 -.00019395  00000+0 -62360-3 0  2578
2 48400  53.1583 172.3617 0001416  95.2435 170.6254 15.31716144    19

Отслеживайте STARLINK-2576 в реальном времени с AllMySat

Download on the App Store